Flag for South Africa Weather past 2 weeks in Durban, South Africa

Now
63 °F

Partly sunny.


Feels Like: 63 °F
Forecast: 56 / 67 °F
Wind: 9 mph from Southwest

Location: King Shaka International Airport

Current Time: Oct 2, 2014 at 7:21:15 AM

Latest Report: Oct 2, 2014 at 7:00 AM


Visibility: N/A

Pressure: 30.27 "Hg

Humidity: 73%

Dew point: 54 °F

Location of DurbanLocation

Historic Weather in Durban — Graph

°F

Durban temperature yesterday

Maximum temperature yesterday: 70 °F (at 7:00 AM)
Minimum temperature yesterday: 57 °F (at 1:00 AM)
Average temperature yesterday: 63 °F

Past Weeks' High & Low Weather Summary

 TemperatureHumidityPressure
High86 °F (Sep 18, 2:00 PM)94% (Sep 18, 2:00 AM)30.42 "Hg (Sep 18, 2:00 AM)
Low50 °F (Sep 21, 2:00 AM)45% (Sep 24, 12:00 PM)29.50 "Hg (Sep 18, 2:00 PM)
Average67 °F74%30.04 "Hg
* Reported Sep 17 6:00 AM — Oct 2 6:00 AM, Durban, Weather by CustomWeather, © 2014

Note: Actual official high and low records may vary slightly from our data, if they occured in-between our weather recording intervals... More about our weather records

Advertising

Durban weather history for previous 24 hours

 ConditionsComfort  
Time TempWeatherWind HumidityBarometerVisibility
6:00 AM
Oct 2
59 °FBroken clouds.10 mph82%30.27 "HgN/A
5:00 AM59 °FPartly sunny.9 mph82%30.24 "HgN/A
4:00 AM57 °FClear.7 mph88%30.24 "Hg10 mi
3:00 AM59 °FPassing clouds.8 mph88%30.24 "HgN/A
2:00 AM59 °FPassing clouds.10 mph88%30.24 "HgN/A
1:00 AM59 °FPassing clouds.8 mph88%30.27 "HgN/A
12:00 AM59 °FPassing clouds.5 mph88%30.27 "HgN/A
11:00 PM
Oct 1
61 °FPartly cloudy.8 mph83%30.27 "HgN/A
10:00 PM61 °FPartly cloudy.8 mph83%30.27 "HgN/A
8:00 PM63 °FPartly cloudy.15 mph83%30.27 "HgN/A
7:00 PM63 °FLight rain. Partly cloudy.18 mph83%30.24 "HgN/A
6:00 PM63 °FSprinkles. Partly cloudy.15 mph83%30.21 "Hg2 mi
4:00 PM66 °FSprinkles. Broken clouds.20 mph78%30.15 "HgN/A
3:00 PM68 °FBroken clouds.23 mph69%30.15 "HgN/A
9:00 AM66 °FSprinkles. Broken clouds.31 mph73%30.07 "HgN/A
8:00 AM70 °FPartly sunny.35 mph60%30.04 "HgN/A
7:00 AM70 °FPassing clouds.31 mph50%29.98 "HgN/A
Weather by CustomWeather, © 2014

See weather overviewHow to use our weather pages